Back to catalog

SL-8 DEB

AliveLEO
NORAD 21178·DEBRIS·🇷🇺 Russia

Launched Feb 12, 1991 from Plesetsk Cosmodrome

Loading…

Next Passes (next 24 hours)

TLE

FreshSource: Space-Track

Epoch: Sep 14, 2026, 09:45 UTC

1 21178U 91009AR  26257.40629831 -.00000103  00000-0 -87389-3 0  9997
2 21178  74.0933 245.8343 0141042 215.4018 299.2432 12.16340126580201

Track SL-8 DEB in real time with AllMySat

Download on the App Store